GW0143 Weather Reports


time (UTC)temp
F
wind
direction
speed
knots
gust
knots
rain 1hr
in
rain 24hr
in
rain mn
in
humidity
%
barometer
mb
20260903204519 76 276 7.0 13.0 0.00 0.00 0.00 22 1025.1
20260903203516 76 321 5.2 8.7 0.00 0.00 0.00 22 1025.2
20260903202517 76 283 4.3 9.6 0.00 0.00 0.00 21 1025.2
20260903201537 76 224 7.0 13.9 0.00 0.00 0.00 23 1025.3
20260903200517 76 289 5.2 10.4 0.00 0.00 0.00 21 1025.3
20260903195517 76 267 3.5 7.0 0.00 0.00 0.00 20 1025.5
20260903194517 75 271 4.3 10.4 0.00 0.00 0.00 21 1025.5
20260903193518 75 275 6.1 10.4 0.00 0.00 0.00 22 1025.6
20260903192518 76 284 9.6 13.9 0.00 0.00 0.00 21 1025.6
20260903191539 76 264 11.3 17.4 0.00 0.00 0.00 20 1025.6
20260903190518 75 236 5.2 11.3 0.00 0.00 0.00 21 1025.7
20260903185518 75 272 7.8 16.5 0.00 0.00 0.00 22 1025.7
20260903184519 75 241 6.1 11.3 0.00 0.00 0.00 24 1025.8
20260903183516 74 314 4.3 8.7 0.00 0.00 0.00 23 1025.8
20260903182519 75 255 7.0 13.9 0.00 0.00 0.00 22 1025.9
20260903181519 74 162 3.5 7.8 0.00 0.00 0.00 26 1026.0
20260903180520 74 236 5.2 10.4 0.00 0.00 0.00 26 1026.0
20260903175516 73 257 5.2 9.6 0.00 0.00 0.00 26 1026.2
20260903174520 73 249 3.5 8.7 0.00 0.00 0.00 25 1026.2
20260903173520 73 235 4.3 10.4 0.00 0.00 0.00 27 1026.2
20260903172520 73 254 5.2 7.8 0.00 0.00 0.00 28 1026.3
20260903171520 72 223 4.3 7.8 0.00 0.00 0.00 27 1026.3
20260903170521 71 202 4.3 7.8 0.00 0.00 0.00 27 1026.3
20260903165517 71 203 4.3 7.8 0.00 0.00 0.00 27 1026.3
20260903164521 71 223 4.3 7.8 0.00 0.00 0.00 29 1026.3
20260903163521 70 255 4.3 7.0 0.00 0.00 0.00 29 1026.3
20260903162521 70 315 4.3 7.0 0.00 0.00 0.00 32 1026.1
20260903161518 70 320 5.2 9.6 0.00 0.00 0.00 33 1026.0
20260903160518 69 286 5.2 9.6 0.00 0.00 0.00 34 1026.2
20260903155518 69 288 6.1 11.3 0.00 0.00 0.00 35 1026.3
20260903154519 68 272 6.1 9.6 0.00 0.00 0.00 35 1026.5
20260903153516 68 282 7.8 12.2 0.00 0.00 0.00 35 1026.5
20260903152519 68 287 5.2 9.6 0.00 0.00 0.00 35 1026.5
20260903151522 68 279 4.3 8.7 0.00 0.00 0.00 36 1026.6
20260903150543 68 227 3.5 6.1 0.00 0.00 0.00 35 1026.7
20260903145517 67 231 5.2 8.7 0.00 0.00 0.00 37 1026.8
20260903144517 66 209 7.0 9.6 0.00 0.00 0.00 41 1026.8
20260903143517 66 186 8.7 11.3 0.00 0.00 0.00 41 1026.8
20260903142517 65 193 8.7 13.0 0.00 0.00 0.00 43 1026.7
20260903141517 64 188 9.6 13.9 0.00 0.00 0.00 45 1026.8
20260903132519 59 190 7.0 9.6 0.00 0.00 0.00 51 1026.3
20260903131518 58 187 6.1 8.7 0.00 0.00 0.00 54 1026.1
20260903130519 57 204 5.2 7.8 0.00 0.00 0.00 54 1026.0
20260903125519 56 185 4.3 7.0 0.00 0.00 0.00 54 1026.1
20260903124519 57 185 5.2 7.0 0.00 0.00 0.00 56 1025.9
20260903123540 58 210 5.2 7.8 0.00 0.00 0.00 50 1025.8
20260903122520 58 180 4.3 6.1 0.00 0.00 0.00 52 1025.8
20260903121520 59 226 5.2 7.8 0.00 0.00 0.00 47 1025.7
20260903120520 56 181 4.3 7.0 0.00 0.00 0.00 57 1025.6
20260903115520 57 197 5.2 7.8 0.00 0.00 0.00 55 1025.6
20260903114520 57 257 2.6 6.1 0.00 0.00 0.00 53 1025.4
20260903113530 58 209 2.6 4.3 0.00 0.00 0.00 52 1025.6
20260903112541 58 181 4.3 7.8 0.00 0.00 0.00 51 1025.4
20260903111541 57 174 5.2 6.1 0.00 0.00 0.00 52 1025.4
20260903110521 58 116 2.6 5.2 0.00 0.00 0.00 50 1025.3
20260903105521 57 143 4.3 7.0 0.00 0.00 0.00 50 1025.4
20260903104521 56 89 3.5 5.2 0.00 0.00 0.00 54 1025.5
20260903103530 57 126 2.6 4.3 0.00 0.00 0.00 51 1025.5
20260903102522 57 128 3.5 6.1 0.00 0.00 0.00 52 1025.4
20260903101536 57 143 4.3 6.1 0.00 0.00 0.00 50 1025.4
20260903100516 56 94 2.6 4.3 0.00 0.00 0.00 53 1025.5
20260903095522 56 129 2.6 6.1 0.00 0.00 0.00 56 1025.4
20260903094531 59 119 1.7 3.5 0.00 0.00 0.00 50 1025.3
20260903093551 60 119 1.7 2.6 0.00 0.00 0.00 46 1025.5
20260903092532 59 128 1.7 3.5 0.00 0.00 0.00 45 1025.5
20260903091517 59 114 1.7 3.5 0.00 0.00 0.00 49 1025.5
20260903090537 62 146 3.5 6.1 0.00 0.00 0.00 46 1025.5
20260903085517 63 154 1.7 5.2 0.00 0.00 0.00 40 1025.6
20260903084517 62 198 1.7 3.5 0.00 0.00 0.00 41 1025.6
20260903083517 62 351 2.6 4.3 0.00 0.00 0.00 41 1025.5
20260903082538 62 123 2.6 6.1 0.00 0.00 0.00 41 1025.5
20260903081518 61 111 2.6 5.2 0.00 0.00 0.00 42 1025.5
20260903080518 61 239 3.5 10.4 0.00 0.00 0.00 46 1025.6
20260903075518 59 102 2.6 6.1 0.00 0.00 0.00 46 1025.6
20260903074518 58 152 3.5 5.2 0.00 0.00 0.00 50 1025.7
20260903073518 58 104 1.7 2.6 0.00 0.00 0.00 51 1025.6
20260903072539 60 114 3.5 6.1 0.00 0.00 0.00 49 1025.5
20260903071519 61 153 2.6 4.3 0.00 0.00 0.00 45 1025.6
20260903070519 61 152 6.1 9.6 0.00 0.00 0.00 43 1025.5
20260903065519 60 208 3.5 6.1 0.00 0.00 0.00 47 1025.7
20260903064519 62 129 2.6 7.0 0.00 0.00 0.00 44 1025.6
20260903063517 62 183 4.3 9.6 0.00 0.00 0.00 43 1025.6
20260903062520 62 141 4.3 7.0 0.00 0.00 0.00 44 1025.6
20260903061517 65 268 8.7 15.6 0.00 0.00 0.00 36 1025.3
20260903060520 60 184 2.6 4.3 0.00 0.00 0.00 43 1025.6
20260903055520 59 168 4.3 7.0 0.00 0.00 0.00 47 1025.6
20260903054520 59 160 4.3 5.2 0.00 0.00 0.00 45 1025.7
20260903053521 59 168 4.3 6.1 0.00 0.00 0.00 44 1025.8
20260903052521 59 163 3.5 5.2 0.00 0.00 0.00 45 1025.8
20260903051521 60 142 3.5 7.0 0.00 0.00 0.00 42 1026.0
20260903050521 61 171 5.2 8.7 0.00 0.00 0.00 40 1026.0
20260903045601 61 145 1.7 3.5 0.00 0.00 0.00 39 1026.1
20260903044521 60 155 5.2 7.0 0.00 0.00 0.00 40 1026.1
20260903043522 60 189 2.6 5.2 0.00 0.00 0.00 41 1026.1
20260903042522 62 183 3.5 5.2 0.00 0.00 0.00 36 1026.1
20260903041522 62 141 1.7 3.5 0.00 0.00 0.00 36 1026.2
20260903040522 63 148 4.3 7.8 0.00 0.00 0.00 36 1026.1
20260903035516 63 98 2.6 4.3 0.00 0.00 0.00 33 1026.1
20260903034516 62 44 3.5 6.1 0.00 0.00 0.00 35 1026.1
20260903033517 64 229 3.5 6.1 0.00 0.00 0.00 32 1026.0
20260903032523 65 227 4.3 7.0 0.00 0.00 0.00 31 1025.8
20260903031517 65 245 5.2 7.8 0.00 0.00 0.00 31 1025.7
20260903030517 65 238 4.3 7.0 0.00 0.00 0.00 31 1025.6
20260903025517 66 252 5.2 8.7 0.00 0.00 0.00 30 1025.5
20260903024517 66 254 5.2 8.7 0.00 0.00 0.00 29 1025.4
20260903023558 67 258 6.1 8.7 0.00 0.00 0.00 29 1025.3
20260903022538 67 254 6.1 7.8 0.00 0.00 0.00 29 1025.3
20260903021518 69 259 7.0 11.3 0.00 0.00 0.00 27 1025.2
20260903020539 69 274 7.8 12.2 0.00 0.00 0.00 26 1025.1
20260903015538 69 282 7.8 13.0 0.00 0.00 0.00 26 1025.0
20260903014519 68 266 6.1 8.7 0.00 0.00 0.00 26 1024.9
20260903013519 69 264 6.1 8.7 0.00 0.00 0.00 25 1024.8
20260903012516 70 251 7.8 9.6 0.00 0.00 0.00 22 1024.8
20260903011519 71 245 7.0 11.3 0.00 0.00 0.00 22 1024.6
20260903010517 73 234 5.2 11.3 0.00 0.00 0.00 22 1024.7
20260903005537 74 233 7.8 11.3 0.00 0.00 0.00 20 1024.6
20260903004517 75 243 6.1 10.4 0.00 0.00 0.00 20 1024.7
20260903003537 75 246 8.7 15.6 0.00 0.00 0.00 20 1024.6
20260903002520 76 236 6.1 8.7 0.00 0.00 0.00 21 1024.6
20260903001517 76 241 6.1 9.6 0.00 0.00 0.00 21 1024.6
20260903000538 77 263 9.6 13.0 0.00 0.00 0.00 20 1024.6
20260902235518 77 246 7.0 11.3 0.00 0.00 0.00 20 1024.5
20260902234518 76 256 7.0 10.4 0.00 0.00 0.00 21 1024.6
20260902233521 76 251 5.2 7.8 0.00 0.00 0.00 21 1024.6
20260902232518 76 278 7.8 14.8 0.00 0.00 0.00 21 1024.7
20260902231518 76 294 6.1 9.6 0.00 0.00 0.00 21 1024.8
20260902230519 77 251 6.1 10.4 0.00 0.00 0.00 21 1024.8
20260902225516 77 224 7.0 11.3 0.00 0.00 0.00 21 1024.9
20260902224519 77 270 7.8 13.0 0.00 0.00 0.00 22 1024.9
20260902223539 78 262 9.6 14.8 0.00 0.00 0.00 21 1024.9
20260902222536 78 275 7.0 13.0 0.00 0.00 0.00 22 1025.0
20260902221517 77 283 7.8 13.0 0.00 0.00 0.00 22 1025.1
20260902220528 77 306 5.2 10.4 0.00 0.00 0.00 23 1025.2
20260902215518 77 296 7.0 11.3 0.00 0.00 0.00 23 1025.3
20260902214517 76 304 4.3 7.8 0.00 0.00 0.00 24 1025.4
20260902213517 77 298 4.3 7.8 0.00 0.00 0.00 24 1025.5
20260902212517 76 268 6.1 13.9 0.00 0.00 0.00 24 1025.6
20260902211523 76 216 5.2 10.4 0.00 0.00 0.00 24 1025.7
20260902210518 76 249 5.2 10.4 0.00 0.00 0.00 24 1025.9
20260902205518 76 283 3.5 11.3 0.00 0.00 0.00 24 1026.0